Weather History for Kalispell, MT

Change the Weather History Date:

Thursday, January 3, 2013

  Actual Average Record
Temperature  
Mean Temperature 15 °F 22 °F  
Max Temperature 25 °F 29 °F 48 °F (1909)
Min Temperature 5 °F 15 °F -27 °F (1979)
Degree Days  
Heating Degree Days 50 43  
Month to date heating degree days 132 129  
Since 1 July heating degree days 3242 3643  
Cooling Degree Days 0 0  
Month to date cooling degree days 0 0  
Year to date cooling degree days 0 0  
Moisture  
Dew Point 10 °F    
Average Humidity 84    
Maximum Humidity 100    
Minimum Humidity 68    
Precipitation  
Precipitation 0.00 in 0.05 in 0.75 in (1913)
Month to date precipitation T 0.15  
Year to date precipitation T 0.15  
Snow  
Snow 0.00 in - - ()
Month to date snowfall T  
Year to date snowfall T  
Since 1 July snowfall 8.8  
Snow Depth 2.00 in    
Sea Level Pressure  
Sea Level Pressure 30.47 in    
Wind  
Wind Speed 1 mph (North)    
Max Wind Speed 6 mph    
Max Gust Speed 7 mph    
Visibility 8 miles    
Events      
T = Trace of Precipitation, MM = Missing Value Source: NWS Daily Summary

Daily Weather History Graph

Daily Weather History Graph

Search for Another Location

Airport:

Trip Planner

Search our weather history database for the weather conditions in past years. The results will help you decide how hot, cold, wet, or windy it might be!

Date:

Astronomy

Jan. 03, 2013 Rise Set
Actual Time 8:27 AM MST 4:55 PM MST
Civil Twilight 7:51 AM MST 5:32 PM MST
Nautical Twilight 7:12 AM MST 6:11 PM MST
Astronomical Twilight 6:34 AM MST 6:49 PM MST
Moon No Moon Rise 11:09 AM MST (1/3)
Length of Visible Light 9h 40m
Length of Day
8h 27m
Waning Gibbous, 65% of the Moon is Illuminated
Jan 3
Waning Gibbous
Jan 4
Last Quarter
Jan 11
New
Jan 18
First Quarter
Jan 26
Full

Hourly Weather History & Observations

Time (MST) Temp. Windchill Dew Point Humidity Pressure Visibility Wind Dir Wind Speed Gust Speed Precip Events Conditions
12:55 AM 16.0 °F - 14.0 °F 92% 30.55 in 10.0 mi Calm Calm - N/A   Partly Cloudy
1:55 AM 12.9 °F - 10.0 °F 88% 30.55 in 10.0 mi Calm Calm - N/A   Clear
2:34 AM 12.2 °F - 10.4 °F 92% 30.41 in 1.8 mi Calm Calm - N/A   Clear
2:42 AM 10.4 °F - 10.4 °F 100% 30.41 in 3.0 mi Calm Calm - N/A   Partly Cloudy
2:55 AM 10.0 °F - 9.0 °F 95% 30.56 in 6.0 mi Calm Calm - N/A   Mostly Cloudy
3:08 AM 10.4 °F - 8.6 °F 92% 30.41 in 1.8 mi Calm Calm - N/A   Overcast
3:14 AM 8.6 °F - 8.6 °F 100% 30.41 in 0.8 mi Calm Calm - N/A   Overcast
3:30 AM 10.4 °F - 8.6 °F 92% 30.41 in 1.5 mi Calm Calm - N/A   Overcast
3:34 AM 10.4 °F - 8.6 °F 92% 30.41 in 3.0 mi Calm Calm - N/A   Overcast
3:42 AM 10.4 °F - 8.6 °F 92% 30.41 in 2.5 mi Calm Calm - N/A   Overcast
3:55 AM 10.9 °F - 9.0 °F 92% 30.54 in 2.5 mi Calm Calm - N/A   Overcast
4:19 AM 12.2 °F - 10.4 °F 92% 30.40 in 5.0 mi Calm Calm - N/A   Overcast
4:55 AM 12.9 °F - 10.9 °F 92% 30.53 in 8.0 mi Calm Calm - N/A   Overcast
5:55 AM 12.9 °F - 10.9 °F 92% 30.53 in 9.0 mi Calm Calm - N/A   Overcast
6:55 AM 12.0 °F - 10.0 °F 92% 30.53 in 10.0 mi Calm Calm - N/A   Overcast
7:55 AM 12.0 °F - 10.9 °F 95% 30.53 in 8.0 mi Calm Calm - N/A   Overcast
8:55 AM 9.0 °F - 7.0 °F 92% 30.55 in 10.0 mi Calm Calm - N/A   Mostly Cloudy
9:55 AM 16.0 °F - 12.9 °F 88% 30.53 in 10.0 mi Calm Calm - N/A   Overcast
10:55 AM 19.0 °F - 14.0 °F 81% 30.53 in 10.0 mi Calm Calm - N/A   Overcast
11:55 AM 21.0 °F 14.6 °F 14.0 °F 74% 30.51 in 10.0 mi North 4.6 mph - N/A   Overcast
12:55 PM 23.0 °F 18.4 °F 14.0 °F 68% 30.49 in 10.0 mi NNE 3.5 mph - N/A   Overcast
1:55 PM 21.9 °F - 12.9 °F 68% 30.48 in 10.0 mi Calm Calm - N/A   Mostly Cloudy
2:02 PM 21.2 °F - 12.2 °F 68% 30.33 in 10.0 mi Calm Calm - N/A   Scattered Clouds
2:55 PM 25.0 °F - 15.1 °F 66% 30.47 in 10.0 mi Calm Calm - N/A   Clear
3:55 PM 23.0 °F - 14.0 °F 68% 30.46 in 10.0 mi Calm Calm - N/A   Clear
4:55 PM 17.1 °F - 12.0 °F 81% 30.47 in 10.0 mi Calm Calm - N/A   Clear
5:55 PM 12.0 °F - 10.0 °F 92% 30.47 in 10.0 mi Calm Calm - N/A   Clear
6:55 PM 10.9 °F - 10.0 °F 96% 30.47 in 10.0 mi Calm Calm - N/A   Clear
7:55 PM 10.9 °F - 9.0 °F 92% 30.46 in 10.0 mi Calm Calm - N/A   Clear
8:55 PM 9.0 °F - 7.0 °F 92% 30.47 in 10.0 mi Calm Calm - N/A   Clear
9:55 PM 7.0 °F - 6.1 °F 96% 30.46 in 8.0 mi Calm Calm - N/A   Clear
10:55 PM 6.1 °F - 3.9 °F 91% 30.46 in 8.0 mi Calm Calm - N/A   Mostly Cloudy
11:55 PM 8.1 °F -0.5 °F 5.0 °F 87% 30.46 in 10.0 mi North 4.6 mph - N/A   Overcast